Weather History for White Plains, NY

Change the Weather History Date:

Tuesday, July 30, 2013

  Actual Average Record
Temperature  
Mean Temperature 70 °F -  
Max Temperature 79 °F 80 °F 94 °F (1988)
Min Temperature 61 °F 63 °F 55 °F (2014)
Cooling Degree Days 4    
Growing Degree Days 20 (Base 50)    
Moisture  
Dew Point 56 °F    
Average Humidity 64    
Maximum Humidity 84    
Minimum Humidity 48    
Precipitation  
Precipitation 0.00 in - - ()
Sea Level Pressure  
Sea Level Pressure 30.12 in    
Wind  
Wind Speed 7 mph (NW)    
Max Wind Speed 13 mph    
Max Gust Speed 17 mph    
Visibility 10 miles    
Events      
Averages and records for this station are not official NWS values.
T = Trace of Precipitation, MM = Missing Value Source: NWS Daily Summary

Daily Weather History Graph

Daily Weather History Graph

Search for Another Location

Airport:

Trip Planner

Search our weather history database for the weather conditions in past years. The results will help you decide how hot, cold, wet, or windy it might be!

Date:

Astronomy

Jul. 30, 2013 Rise Set
Actual Time 5:48 AM EDT 8:12 PM EDT
Civil Twilight 5:17 AM EDT 8:43 PM EDT
Nautical Twilight 4:39 AM EDT 9:22 PM EDT
Astronomical Twilight 3:56 AM EDT 10:05 PM EDT
Moon 12:05 AM EDT (7/30) 2:30 PM EDT (7/30)
Length of Visible Light 15h 26m
Length of Day
14h 24m
Last Quarter, 41% of the Moon is Illuminated
Jul 30
Last Quarter
Aug 6
New
Aug 14
First Quarter
Aug 20
Full
Aug 28
Last Quarter

Hourly Weather History & Observations

Time (EDT) Temp. Dew Point Humidity Pressure Visibility Wind Dir Wind Speed Gust Speed Precip Events Conditions
12:56 AM 66.0 °F 55.0 °F 68% 30.09 in 10.0 mi NW 5.8 mph - N/A   Clear
1:56 AM 64.0 °F 55.9 °F 75% 30.09 in 10.0 mi NW 5.8 mph - N/A   Clear
2:56 AM 63.0 °F 55.9 °F 78% 30.09 in 10.0 mi NW 6.9 mph - N/A   Clear
3:56 AM 62.1 °F 55.9 °F 80% 30.09 in 10.0 mi NW 6.9 mph - N/A   Clear
4:56 AM 61.0 °F 55.9 °F 83% 30.11 in 10.0 mi NNW 6.9 mph - N/A   Clear
5:56 AM 62.1 °F 55.0 °F 78% 30.12 in 10.0 mi Calm Calm - N/A   Clear
6:56 AM 64.9 °F 57.0 °F 75% 30.13 in 10.0 mi WNW 3.5 mph - N/A   Clear
7:56 AM 68.0 °F 55.9 °F 65% 30.14 in 10.0 mi WNW 8.1 mph - N/A   Clear
8:56 AM 70.0 °F 55.9 °F 61% 30.15 in 10.0 mi WNW 6.9 mph - N/A   Clear
9:56 AM 72.0 °F 57.0 °F 59% 30.15 in 10.0 mi NW 10.4 mph - N/A   Clear
10:56 AM 73.0 °F 55.0 °F 53% 30.14 in 10.0 mi NW 12.7 mph - N/A   Clear
11:56 AM 75.0 °F 54.0 °F 48% 30.14 in 10.0 mi WNW 10.4 mph 17.3 mph N/A   Scattered Clouds
12:56 PM 75.9 °F 57.0 °F 52% 30.13 in 10.0 mi NW 11.5 mph - N/A   Clear
1:56 PM 77.0 °F 55.9 °F 48% 30.12 in 10.0 mi NW 9.2 mph - N/A   Scattered Clouds
2:56 PM 78.1 °F 57.0 °F 48% 30.11 in 10.0 mi NNW 10.4 mph - N/A   Mostly Cloudy
3:56 PM 75.9 °F 55.9 °F 50% 30.11 in 10.0 mi NNW 8.1 mph - N/A   Mostly Cloudy
4:56 PM 75.0 °F 55.9 °F 51% 30.10 in 10.0 mi WNW 8.1 mph - N/A   Mostly Cloudy
5:56 PM 75.9 °F 55.0 °F 48% 30.10 in 10.0 mi WNW 10.4 mph - N/A   Scattered Clouds
6:56 PM 75.0 °F 57.0 °F 53% 30.11 in 10.0 mi WNW 8.1 mph - N/A   Scattered Clouds
7:56 PM 71.1 °F 57.9 °F 63% 30.12 in 10.0 mi West 3.5 mph - N/A   Partly Cloudy
8:56 PM 68.0 °F 57.0 °F 68% 30.12 in 10.0 mi Calm Calm - N/A   Clear
9:56 PM 66.0 °F 59.0 °F 78% 30.12 in 10.0 mi WNW 3.5 mph - N/A   Clear
10:56 PM 66.0 °F 57.9 °F 75% 30.13 in 10.0 mi West 3.5 mph - N/A   Clear
11:56 PM 64.0 °F 59.0 °F 84% 30.13 in 10.0 mi Calm Calm - N/A   Clear